STARLINK-36332, 67862

Orbit data source: Space-Track

STARLINK-36332, 67862 is a payload satellite owned by SpaceX/Seattle (US) in LEO that was launched on Fri, 20 Feb 2026 UTC via an FALCON 9 launch vehicle from the Air Force Eastern Test Range (AFETR). Payload-class satellites include a variety of spacecraft equipped with specific instruments for various scientific and technological missions. These include communications satellites like Starlink; space stations such as the ISS; scientific satellites like the Hubble; Earth observation satellites from companies like Planet Labs, Umbra, and HawkEye 360; GPS; miniature CubeSats for education and research; and military/defense satellites.

Loading next visibility...
Identifier
67862, 2026-034N
Orbit
LEO
Country
Flag of USUS
Related business
Manufacturer
SpaceX/Seattle
Mission
Operational Commercial Communications
Bus & Motor
STARLINK V2MO, Unknown motor
Mass
575 kg wet, ~530 kg dry
Launch date (UTC)
2026-02-20 (4 months ago)
Launch vehicle
FALCON 9
Launch site
Air Force Eastern Test Range (AFETR)
Object type
Payload
Rocket body
Debris
Shape & HBR
Box + 2 Pan, 17.7 m
Radar Cross Section
36.964 m², Large (>1 m²)

Expand to show TLE details & history
Last TLE update: 22 hours ago

TLE from 22 hours ago
0 STARLINK-36332
1 67862U 26034N   26170.97933943  .00024784  00000-0  84571-3 0  9990
2 67862  53.1599  89.3361 0001375  86.0849 274.0309 15.30216240 19698
Epoch: 2026-06-19T23:30Z
TLE epoch observation values (Epoch: 2026-06-19T23:30:14.926Z)
Latitude
-0.00003°
Longitude
-171.42666°
Altitude
476 km
Speed
7.629 km/s
True Right ascension
05h 57m 20s
True Declination
0° 00' 00"
Sunlit
Object was in daylight at epoch
Visualization orbit readout
Latitude
Unknown
Longitude
Unknown
Altitude
Unknown
Speed
Unknown
Apparent Right ascension
Unknown
Apparent Declination
Unknown
Sunlit
N/A
Visualization observer readout
Local Sidereal Time
08:32:42
Azimuth
Unknown
Elevation
Unknown
Doppler factor
Unknown
Orbital elements
Apogee altitude
476.365 km
Perigee altitude
474.481 km
Semi-major axis
6,853.56 km
Eccentricity
0.00014
Inclination
53.1599°
RAAN
89.3361°
Arg. of periapsis
86.0849°
True anomaly
274.01518°
Mean anomaly
274.0309°
Eccentric anomaly
274.02304°
Mean motion
3.82533 °/min
Orbital period
94.11 mins
BSTAR
0.00084571
Loading maneuver chart data...
Computing Atmospheric mass density...
Loading historical data...
Loading historical data...
Loading historical data...
Loading historical data...
Loading historical data...
Loading historical data...
Loading historical data...

Documentation

Showing up to 5 results
|